Location: Il Ritiro
(43.4167°N, 13.1333°E)
Time: 16:36:12
(UTC+00:00)

ATLAS 2AS CENTAUR R/B - Pass Details

Date: 05 July 2020
Orbit: 930 x 1282 km, 63.7° (Epoch: 19 July)

Event Time Altitude Azimuth Distance (km) Brightness Sun altitude
Rises 20:42:30 0° 323° (NW) 4,203 7.7 -15.5°
Reaches altitude 10° 20:45:42 10° 333° (NNW) 3,196 6.5 -15.8°
Maximum altitude 20:52:37 35° 37° (NE) 1,807 4.1 -16.5°
Enters shadow 20:58:54 11° 100° (E) 2,931 4.6 -17.2°
